Simultaneous Nadir Overpasses (SNOs) Predictions

Prediction of SNOs between AQUA and METOP-C Satellite Orbit:

Table of predicted SNOs for the next 14.0 days since TLE Epoch: 1/29/2022
Index Date (AQUA) Time (AQUA) Lat,Lon (AQUA) SZA (AQUA ) Date (METOP-C) Time (METOP-C) Lat,Lon (METOP-C) SZA (METOP-C ) Distance(km) Time Diff (sec)
1 01/29/2022 14:54:11 -73.10, 132.29 89.04 01/29/2022 14:53:05 -73.01, 129.49 88.99 91.12 66
2 01/29/2022 15:43:51 73.77, -61.47 91.67 01/29/2022 15:43:29 73.78, -61.44 91.69 1.77 22
3 01/29/2022 16:33:18 -73.83, 106.03 88.27 01/29/2022 16:34:10 -73.84, 106.03 88.27 0.78 52
4 02/01/2022 10:28:31 -73.47,-162.01 89.43 02/01/2022 10:27:20 -73.39,-163.26 89.43 40.52 71
5 02/01/2022 11:18:04 73.77, 4.99 90.89 02/01/2022 11:17:52 73.75, 4.90 90.88 3.10 12
6 02/01/2022 12:07:30 -73.83, 172.49 89.05 02/01/2022 12:08:32 -73.82, 172.39 89.07 3.16 62
7 02/04/2022 06:02:48 -73.74, -96.13 89.95 02/04/2022 06:01:35 -73.72, -96.10 89.96 2.32 73
8 02/04/2022 06:52:16 73.78, 71.41 90.09 02/04/2022 06:52:13 73.77, 71.36 90.08 2.13 3
9 02/04/2022 07:41:43 -73.84,-121.08 89.86 02/04/2022 07:42:54 -73.85,-121.13 89.86 1.82 71
10 02/07/2022 01:37:00 -73.71, -29.62 90.84 02/07/2022 01:35:57 -73.74, -29.63 90.79 3.64 63
11 02/07/2022 02:26:29 73.81, 137.81 89.26 02/07/2022 02:26:35 73.78, 137.80 89.24 2.42 6
12 02/07/2022 03:16:01 -74.12, -55.26 90.41 02/07/2022 03:17:11 -74.12, -54.07 90.48 36.49 70
13 02/09/2022 21:11:13 -73.75, 36.76 91.69 02/09/2022 21:10:19 -73.76, 36.82 91.67 2.59 54
14 02/09/2022 22:00:41 73.80,-155.71 88.35 02/09/2022 22:00:57 73.80,-155.76 88.35 1.68 16



Historial Predications of SNOs between AQUA and METOP-C
